Lamar, CO

11:24 AM MST on November 18, 2017 (GMT -0700)
Lamar Municipal

Weather History for KLAA - April, 2014

Change the Weather History Date:

Monday, April 21, 2014

  Actual Average Record
Temperature  
Mean Temperature 61 °F 54 °F  
Max Temperature 75 °F 71 °F 95 °F (1989)
Min Temperature 46 °F 37 °F 21 °F (1992)
Degree Days  
Heating Degree Days 4 11  
Month to date heating degree days 270 302  
Since 1 July heating degree days 5239 5311  
Cooling Degree Days 0 0  
Month to date cooling degree days 7 0  
Year to date cooling degree days 7 0  
Growing Degree Days 10 (Base 50)    
Moisture  
Dew Point 34 °F    
Average Humidity 55    
Maximum Humidity 93    
Minimum Humidity 17    
Precipitation  
Precipitation 0.00 in 0.06 in 0.59 in (1933)
Month to date precipitation 0.38  
Year to date precipitation 0.91  
Sea Level Pressure  
Sea Level Pressure 30.05 in    
Wind  
Wind Speed 11 mph (East)    
Max Wind Speed 26 mph    
Max Gust Speed 32 mph    
Visibility 10 miles    
Events      
T = Trace of Precipitation, MM = Missing Value Source: NWS Daily Summary

Daily Weather History Graph

Daily Weather History Graph

Search for Another Location

Airport or City:

Trip Planner

Search our weather history database for the weather conditions in past years. The results will help you decide how hot, cold, wet, or windy it might be!

Date:

Astronomy

Apr. 21, 2014 Rise Set
Actual Time 6:06 AM MDT 7:32 PM MDT
Civil Twilight 5:39 AM MDT 8:00 PM MDT
Nautical Twilight 5:06 AM MDT 8:33 PM MDT
Astronomical Twilight 4:31 AM MDT 9:08 PM MDT
Moon 1:02 AM MDT (4/21) 11:37 AM MDT (4/21)
Length of Visible Light 14h 20m
Length of Day
13h 25m
Waning Gibbous, 57% of the Moon is Illuminated
Apr 21
Waning Gibbous
Apr 22
Last Quarter
Apr 29
New
May 6
First Quarter
May 14
Full

Hourly Weather History & Observations

Time (MDT) Temp. Dew Point Humidity Pressure Visibility Wind Dir Wind Speed Gust Speed Precip Events Conditions
12:53 AM 53.1 °F 48.0 °F 83% 29.93 in 9.0 mi WNW 3.5 mph - N/A   Clear
1:53 AM 48.9 °F 45.0 °F 86% 29.94 in 9.0 mi NW 3.5 mph - N/A   Clear
2:53 AM 48.9 °F 45.0 °F 86% 29.95 in 9.0 mi WSW 3.5 mph - N/A   Clear
3:53 AM 46.9 °F 44.1 °F 90% 29.95 in 9.0 mi SW 8.1 mph - N/A   Clear
4:53 AM 54.0 °F 37.9 °F 55% 29.97 in 10.0 mi Variable 5.8 mph - N/A   Clear
5:53 AM 50.0 °F 39.0 °F 66% 30.01 in 10.0 mi Variable 3.5 mph - N/A   Clear
6:53 AM 51.1 °F 37.9 °F 61% 30.04 in 9.0 mi NNE 10.4 mph - N/A   Clear
7:53 AM 55.9 °F 33.1 °F 42% 30.09 in 9.0 mi North 23.0 mph 27.6 mph N/A   Clear
8:53 AM 60.1 °F 28.9 °F 31% 30.11 in 9.0 mi NNE 24.2 mph 31.1 mph N/A   Clear
9:53 AM 63.0 °F 28.9 °F 28% 30.13 in 9.0 mi NE 19.6 mph - N/A   Partly Cloudy
10:53 AM 66.0 °F 28.0 °F 24% 30.16 in 10.0 mi NE 20.7 mph 26.5 mph N/A   Partly Cloudy
11:53 AM 66.9 °F 27.0 °F 22% 30.14 in 10.0 mi East 9.2 mph 18.4 mph N/A   Partly Cloudy
12:53 PM 70.0 °F 27.0 °F 20% 30.12 in 10.0 mi NE 9.2 mph - N/A   Clear
1:53 PM 72.0 °F 28.0 °F 20% 30.10 in 10.0 mi ENE 10.4 mph 16.1 mph N/A   Partly Cloudy
2:53 PM 73.0 °F 26.1 °F 17% 30.08 in 10.0 mi East 9.2 mph - N/A   Clear
3:53 PM 73.9 °F 26.1 °F 17% 30.06 in 10.0 mi ESE 11.5 mph - N/A   Clear
4:53 PM 73.9 °F 27.0 °F 18% 30.04 in 10.0 mi East 9.2 mph - N/A   Clear
5:53 PM 72.0 °F 27.0 °F 19% 30.04 in 10.0 mi ESE 15.0 mph - N/A   Clear
6:53 PM 68.0 °F 30.0 °F 24% 30.05 in 10.0 mi ESE 11.5 mph - N/A   Clear
7:53 PM 60.1 °F 32.0 °F 35% 30.08 in 10.0 mi SE 8.1 mph - N/A   Clear
8:53 PM 57.9 °F 33.1 °F 39% 30.09 in 10.0 mi SE 10.4 mph - N/A   Clear
9:53 PM 55.9 °F 35.1 °F 45% 30.08 in 10.0 mi SE 9.2 mph - N/A   Clear
10:53 PM 55.0 °F 37.9 °F 53% 30.07 in 10.0 mi SE 10.4 mph - N/A   Clear
11:53 PM 54.0 °F 36.0 °F 51% 30.08 in 10.0 mi SSE 9.2 mph - N/A   Clear